Wind_Speed
17 15 10 7 7 6 4 4 4 6 7 6 6 7 7 7 8 8 8 10 12 11 10 8 6 6 7 8 9 9 9 9 11 11 11 11 11 13 16 16 16 18 20
20 16 15 11 9 7 7 5 4 4 5 7 7 7 6 7 7 7 8 9 10 8 7 7 8 9 10 10 11 11 10 10 10 11 10 12 13 13 13 14 15 16 16
23 23 19 16 13 9 8 8 6 4 4 5 7 7 7 6 5 6 7 7 7 7 7 7 9 9 10 11 14 13 12 10 10 9 9 9 9 11 14 14 15 16 16
27 26 24 19 18 14 11 10 8 6 6 4 5 7 7 7 6 6 6 6 7 7 8 8 8 9 10 11 11 10 10 10 10 11 10 10 11 11 14 12 12 13 14
29 28 27 26 15 15 13 12 10 8 7 6 4 6 8 9 8 8 8 8 9 9 8 8 9 9 9 10 10 10 9 9 11 10 11 11 12 11 11 14 12 12 13
29 29 30 30 28 20 18 16 14 12 10 8 7 7 8 10 10 11 11 10 10 10 11 10 10 11 12 13 13 13 12 12 13 13 13 13 12 11 10 11 12 12 12
25 23 26 30 26 25 23 20 18 17 16 16 15 13 12 11 11 12 13 13 12 11 12 12 12 13 13 14 14 15 15 14 14 14 15 14 16 15 12 13 14 13 14
26 27 26 26 25 25 24 23 21 20 20 19 21 19 18 18 16 14 14 14 14 14 14 14 14 14 15 14 14 15 16 17 18 17 17 17 17 17 17 16 18 15 14
28 27 28 27 27 25 23 23 22 23 23 24 23 23 22 20 20 19 18 17 16 16 15 15 15 16 16 17 17 17 18 20 20 20 20 19 18 19 20 19 20 20 17
29 26 28 29 30 30 29 28 26 25 23 24 23 24 25 24 22 21 19 18 19 18 18 18 20 20 19 19 20 20 21 21 22 23 23 23 22 21 21 22 22 22 21
32 34 33 34 33 34 35 33 31 29 28 28 27 28 28 28 26 23 21 19 18 18 19 20 21 23 24 24 25 24 24 25 25 27 26 26 25 26 26 26 25 24 24
36 34 35 37 39 39 38 37 36 33 32 31 30 31 30 29 27 26 25 25 24 23 25 26 27 28 30 30 30 30 31 30 30 32 33 31 31 30 29 30 30 31 31
39 38 40 40 41 39 38 41 40 37 34 33 33 33 32 31 31 30 29 27 28 29 29 30 30 31 31 33 35 36 37 38 37 37 37 36 36 35 35 35 36 35 35
40 42 39 41 41 41 42 42 47 45 43 39 39 38 37 36 35 32 31 31 31 32 34 33 33 35 37 37 38 40 40 41 43 44 45 42 40 42 42 41 43 40 39
41 41 38 37 40 39 39 45 37 43 40 44 43 43 43 43 40 36 34 34 35 39 41 41 41 41 42 43 43 45 46 46 48 49 50 51 45 46 44 44 45 49 46
38 39 39 39 38 35 37 36 31 32 28 24 18 16 38 38 42 33 38 37 41 41 42 42 41 42 44 46 47 44 49 51 51 53 56 56 55 52 47 45 45 49 50
40 39 39 39 36 36 34 36 30 22 21 20 25 26 35 47 45 44 43 46 47 38 42 42 44 45 47 49 47 50 51 51 52 54 59 67 67 55 49 47 50 49 55
42 41 40 38 38 38 38 35 26 25 23 25 26 35 45 38 40 43 46 45 45 45 43 44 42 48 43 47 43 45 47 46 45 53 55 54 53 52 53 49 50 49 51
41 41 43 40 38 38 37 34 26 26 28 28 31 32 34 36 38 36 41 43 44 45 44 46 47 48 44 45 49 49 48 53 54 58 51 42 38 45 43 50 51 47 51
40 40 40 41 38 38 35 29 28 28 27 29 30 32 35 34 34 36 42 42 42 45 45 46 46 49 53 54 54 58 55 45 46 55 50 43 43 46 48 51 51 48 55
40 38 40 40 40 38 31 32 27 27 25 29 27 32 33 38 42 43 46 47 52 52 47 49 45 39 37 37 36 35 35 34 32 39 50 54 56 57 58 58 57 53 53
41 40 42 41 40 36 36 33 28 28 29 32 34 37 39 42 45 46 50 54 52 44 43 39 36 34 34 35 37 38 36 35 37 36 38 42 49 50 50 56 56 60 59
40 38 41 42 37 36 34 33 31 30 31 32 33 38 43 46 48 50 51 46 38 36 36 35 35 37 37 40 42 42 42 40 37 37 41 45 46 45 46 53 54 54 58
36 36 37 35 30 24 29 33 30 29 31 32 35 36 40 40 41 41 39 37 38 39 39 38 40 40 39 40 42 42 44 42 41 38 39 45 49 50 51 44 47 53 51
31 32 30 29 29 23 29 29 28 26 26 29 31 34 35 35 36 35 36 38 38 38 39 41 41 42 42 43 44 43 40 40 41 41 40 34 45 49 52 53 42 43 46
29 24 25 22 23 23 23 24 28 29 29 32 33 32 34 34 34 35 37 38 40 40 40 41 42 44 42 42 41 40 41 42 42 44 47 47 40 37 43 46 45 43 40
Wind_Direction
295 289 273 260 252 243 240 249 275 288 292 278 272 282 291 298 317 332 338 341 349 353 347 328 318 335 352 3 9 4 4 350 356 358 2 3 2 11 12 2 7 13 11
288 304 283 269 267 263 249 249 264 289 307 311 303 291 293 306 319 322 332 338 342 348 347 330 321 325 336 351 359 353 352 348 354 355 348 357 5 10 9 9 6 9 7
284 288 296 278 261 260 271 261 264 288 300 303 298 294 291 289 295 313 322 331 336 343 340 332 322 323 330 343 350 347 345 346 344 344 339 354 355 11 15 16 14 9 4
274 275 274 280 265 259 266 258 242 255 268 285 303 300 300 294 297 306 318 322 324 334 334 331 324 320 326 331 332 331 335 336 331 331 332 342 342 1 8 1 16 12 8
262 267 265 272 282 268 270 270 258 233 245 252 275 306 297 295 294 298 306 314 319 319 318 318 316 308 303 298 299 305 312 321 326 332 337 337 335 338 354 342 352 1 4
258 269 264 266 276 274 276 278 271 263 257 263 273 271 286 293 298 304 310 313 312 311 307 303 299 299 298 300 299 300 310 318 322 325 327 330 330 328 337 330 331 344 349
263 261 264 266 268 272 269 267 266 267 269 267 268 274 270 267 278 290 296 299 297 298 294 294 294 294 297 299 302 300 299 305 308 313 313 320 324 322 322 319 323 332 339
252 254 260 263 266 269 269 266 266 265 266 271 273 271 267 263 264 265 272 281 283 287 290 291 294 296 300 301 299 297 299 298 300 301 306 309 312 314 315 313 314 320 327
253 251 254 260 260 259 259 263 264 265 267 269 267 268 268 269 271 269 266 262 267 273 278 283 287 290 294 295 294 293 294 290 291 293 294 297 297 304 308 307 304 308 311
249 249 252 253 257 257 253 253 255 259 265 267 268 268 266 264 265 266 266 266 262 262 270 277 279 279 280 283 284 288 288 285 284 283 284 286 286 288 287 291 293 297 299
241 244 253 263 262 260 259 257 255 254 257 260 262 263 265 265 260 258 257 260 267 268 275 277 279 280 282 282 284 287 286 284 283 278 274 273 276 282 280 279 280 284 283
248 251 257 257 259 258 261 264 261 259 257 258 262 263 263 260 257 254 250 250 256 262 265 270 273 279 282 280 278 275 279 284 286 283 281 278 276 274 277 280 282 283 287
244 251 255 257 259 259 258 259 260 255 255 256 259 259 258 257 253 255 255 256 255 255 257 259 266 269 274 278 279 279 280 281 278 277 274 275 274 276 277 275 278 279 279
260 257 251 255 256 259 259 263 260 247 247 243 244 247 252 252 253 253 255 258 260 262 262 257 264 270 270 273 274 276 277 279 281 281 282 279 282 283 275 285 278 279 282
259 254 253 255 257 259 264 262 276 259 277 249 247 245 246 247 247 247 253 262 265 261 261 263 265 268 268 269 270 271 275 278 281 282 278 274 273 276 277 281 285 291 288
266 257 251 252 253 257 257 261 265 269 274 267 253 259 258 254 247 240 261 258 261 265 267 266 269 272 272 271 268 270 270 271 273 276 277 275 270 266 263 268 276 279 283
258 254 253 254 256 258 258 258 260 268 293 283 273 238 246 243 250 246 257 258 259 261 271 269 268 275 274 273 276 274 278 281 281 278 280 278 270 269 273 276 279 279 282
259 260 260 256 258 259 261 262 265 263 261 252 253 233 237 231 233 247 255 257 262 266 269 267 272 275 274 273 271 270 274 278 277 279 283 284 272 272 269 270 273 278 286
256 257 258 260 257 258 258 263 266 256 253 247 246 242 237 243 253 255 256 259 268 267 267 263 268 263 270 273 273 267 274 275 276 282 286 284 279 272 271 272 270 275 276
254 253 257 262 258 254 256 262 256 258 258 258 249 248 252 252 244 252 264 265 266 270 265 267 273 268 270 272 268 265 280 284 289 274 278 286 281 276 272 276 272 282 276
254 257 258 259 260 262 263 260 256 254 247 242 249 257 252 253 253 260 267 270 272 274 268 274 272 270 272 276 275 277 284 285 290 274 273 277 282 282 281 284 278 276 276
253 253 254 255 256 260 260 259 253 247 238 242 242 244 247 252 259 263 267 269 271 268 262 264 269 277 278 279 281 283 285 292 297 295 297 290 287 287 290 285 282 279 280
247 246 249 253 258 257 257 257 254 249 246 240 243 247 248 253 257 259 265 270 270 269 269 273 274 272 277 280 282 287 291 293 292 297 301 303 303 300 296 293 290 279 276
245 246 248 252 246 254 255 255 259 256 252 249 250 253 253 257 261 267 267 269 270 274 277 280 281 282 283 284 284 286 289 292 293 295 294 296 299 300 299 297 284 274 271
239 243 247 249 254 236 246 261 257 257 256 257 259 260 264 260 263 267 270 270 272 274 277 279 281 281 281 282 282 282 285 289 293 296 296 289 291 292 292 295 291 271 249
234 238 240 238 240 241 242 250 255 255 251 255 255 256 259 262 263 265 266 268 270 273 275 277 278 279 282 284 285 286 287 289 289 291 294 294 287 284 289 291 291 292 267
Height
5906 5907 5908 5907 5907 5906 5906 5907 5907 5907 5908 5908 5909 5910 5910 5910 5910 5910 5910 5910 5909 5908 5908 5908 5908 5907 5907 5907 5906 5905 5904 5903 5902 5901 5900 5899 5897 5895 5894 5893 5891 5890 5888
5903 5904 5904 5906 5907 5906 5905 5906 5906 5907 5907 5908 5908 5909 5909 5910 5911 5911 5911 5910 5909 5908 5907 5907 5907 5907 5907 5906 5906 5906 5905 5903 5902 5902 5901 5900 5898 5896 5894 5892 5890 5889 5889
5901 5902 5903 5904 5905 5905 5905 5905 5906 5906 5906 5907 5908 5908 5907 5908 5908 5909 5908 5908 5908 5908 5907 5907 5907 5907 5906 5907 5907 5907 5906 5905 5904 5902 5901 5899 5898 5896 5895 5893 5892 5891 5889
5899 5900 5902 5902 5903 5903 5904 5904 5904 5904 5905 5905 5906 5906 5907 5907 5907 5907 5907 5906 5906 5906 5907 5906 5906 5906 5906 5906 5905 5905 5904 5904 5903 5902 5901 5899 5898 5896 5895 5893 5891 5890 5888
5896 5897 5897 5901 5901 5901 5901 5902 5903 5903 5903 5904 5904 5905 5905 5905 5906 5906 5906 5905 5905 5905 5905 5905 5905 5904 5904 5902 5902 5902 5902 5901 5901 5901 5899 5898 5897 5895 5894 5894 5892 5890 5888
5893 5894 5895 5896 5899 5899 5900 5900 5901 5902 5902 5903 5903 5903 5903 5904 5904 5904 5904 5904 5904 5904 5904 5903 5903 5903 5903 5902 5901 5901 5901 5900 5900 5899 5898 5896 5895 5894 5893 5892 5891 5889 5887
5890 5891 5891 5893 5894 5895 5896 5898 5899 5899 5900 5901 5901 5902 5902 5902 5902 5903 5903 5903 5903 5902 5902 5902 5901 5900 5900 5900 5900 5899 5898 5898 5897 5896 5895 5894 5893 5892 5891 5892 5891 5889 5887
5887 5888 5889 5890 5890 5892 5894 5895 5896 5897 5898 5899 5899 5900 5900 5900 5900 5899 5899 5899 5899 5899 5899 5899 5899 5898 5897 5897 5897 5896 5896 5896 5895 5894 5893 5892 5891 5890 5889 5889 5889 5887 5885
5883 5883 5883 5885 5888 5889 5889 5891 5892 5894 5895 5895 5896 5896 5897 5897 5897 5897 5896 5895 5895 5896 5895 5895 5894 5895 5894 5893 5893 5892 5892 5892 5891 5891 5889 5888 5887 5887 5886 5886 5885 5883 5882
5876 5877 5878 5880 5882 5884 5884 5885 5887 5889 5891 5891 5892 5893 5893 5893 5892 5892 5892 5892 5892 5891 5891 5891 5890 5890 5890 5889 5888 5889 5888 5887 5887 5886 5886 5885 5884 5882 5881 5880 5880 5879 5877
5871 5872 5872 5874 5876 5876 5878 5879 5881 5883 5885 5886 5887 5888 5889 5889 5888 5887 5887 5888 5888 5888 5888 5887 5885 5885 5885 5885 5885 5884 5883 5883 5882 5880 5878 5878 5878 5878 5877 5875 5874 5872 5871
5866 5867 5866 5866 5868 5869 5871 5873 5875 5876 5878 5880 5881 5882 5883 5883 5883 5882 5882 5881 5882 5883 5883 5882 5882 5881 5881 5881 5880 5879 5877 5877 5877 5877 5876 5875 5874 5872 5872 5871 5870 5870 5869
5859 5859 5859 5858 5859 5863 5866 5867 5869 5870 5871 5872 5874 5874 5876 5876 5876 5876 5877 5876 5876 5875 5875 5875 5875 5874 5875 5874 5874 5874 5874 5873 5871 5869 5870 5868 5866 5866 5865 5865 5863 5863 5862
5849 5851 5851 5852 5853 5855 5857 5859 5861 5859 5861 5862 5862 5865 5867 5867 5869 5869 5870 5871 5870 5869 5869 5868 5867 5868 5867 5867 5867 5868 5867 5866 5866 5866 5865 5866 5865 5862 5859 5858 5857 5856 5856
5839 5840 5841 5843 5846 5848 5850 5851 5849 5853 5851 5851 5853 5856 5855 5857 5859 5861 5862 5862 5862 5861 5860 5861 5861 5861 5860 5860 5859 5859 5858 5856 5856 5856 5857 5855 5854 5853 5851 5849 5848 5847 5848
5829 5832 5832 5835 5838 5840 5841 5842 5847 5847 5848 5845 5845 5844 5846 5848 5850 5852 5854 5854 5853 5851 5851 5852 5853 5852 5852 5850 5849 5849 5848 5847 5845 5845 5844 5843 5841 5841 5841 5840 5839 5839 5838
5822 5824 5826 5829 5831 5832 5834 5837 5838 5838 5839 5842 5838 5838 5839 5841 5842 5846 5846 5846 5845 5847 5846 5846 5845 5844 5843 5842 5841 5841 5840 5838 5837 5834 5830 5830 5830 5830 5831 5832 5831 5829 5827
5816 5816 5817 5821 5824 5825 5826 5827 5831 5832 5836 5835 5833 5830 5832 5834 5833 5837 5836 5839 5838 5839 5839 5838 5836 5835 5832 5831 5830 5830 5829 5828 5825 5822 5822 5818 5817 5819 5821 5823 5822 5819 5815
5807 5810 5810 5812 5815 5817 5819 5821 5826 5828 5828 5827 5826 5826 5827 5830 5829 5830 5830 5832 5833 5832 5830 5828 5826 5825 5824 5823 5821 5820 5819 5819 5816 5813 5811 5808 5806 5809 5810 5812 5810 5808 5809
5800 5801 5802 5803 5806 5809 5812 5817 5819 5820 5819 5818 5818 5819 5821 5821 5821 5823 5823 5824 5823 5823 5821 5819 5818 5818 5816 5813 5811 5811 5809 5806 5802 5802 5801 5800 5799 5798 5798 5800 5800 5799 5799
5792 5794 5795 5797 5798 5800 5805 5807 5812 5812 5812 5812 5813 5814 5814 5813 5815 5816 5815 5815 5814 5813 5812 5811 5809 5807 5805 5802 5802 5801 5799 5797 5795 5793 5792 5791 5790 5789 5787 5787 5786 5786 5786
5785 5787 5788 5789 5791 5796 5796 5799 5804 5805 5805 5806 5808 5808 5807 5807 5806 5807 5808 5806 5805 5804 5803 5802 5800 5799 5797 5795 5793 5792 5791 5790 5786 5785 5784 5781 5777 5776 5774 5773 5772 5770 5770
5776 5780 5781 5783 5785 5787 5788 5791 5794 5796 5796 5797 5800 5800 5800 5801 5801 5801 5799 5797 5796 5796 5795 5794 5793 5791 5789 5787 5784 5782 5779 5779 5779 5777 5773 5769 5767 5765 5765 5758 5756 5756 5755
5767 5771 5773 5777 5777 5778 5779 5780 5784 5788 5790 5790 5792 5794 5794 5793 5792 5792 5791 5789 5789 5788 5786 5784 5783 5782 5780 5778 5776 5773 5771 5769 5767 5768 5767 5762 5756 5753 5751 5751 5747 5743 5741
5759 5761 5766 5768 5769 5771 5773 5775 5777 5780 5783 5783 5784 5784 5784 5785 5786 5785 5783 5783 5782 5781 5780 5778 5775 5773 5772 5771 5768 5766 5763 5761 5758 5755 5755 5757 5750 5744 5741 5739 5740 5735 5727
5752 5756 5759 5763 5764 5766 5766 5767 5770 5771 5774 5777 5778 5778 5779 5779 5778 5777 5777 5776 5774 5773 5772 5770 5768 5766 5764 5762 5759 5757 5754 5752 5750 5747 5745 5743 5743 5741 5734 5729 5728 5726 5724